| time (UTC) | temp F | wind direction | speed MPH | gust MPH | rain 1hr in | rain 24hr in | rain mn in | humidity % | barometer mb |
| 20260831233843 | 76 | 221 | 0.0 | 0.0 | 0.00 | 0.00 | 0.00 | 86 | 1019.0 |
| 20260831232835 | 76 | 221 | 0.0 | 0.0 | 0.00 | 0.00 | 0.00 | 86 | 1019.0 |
| 20260831231827 | 77 | 221 | 0.0 | 0.0 | 0.00 | 0.00 | 0.00 | 86 | 1019.0 |
| 20260831230818 | 77 | 221 | 0.0 | 0.0 | 0.00 | 0.00 | 0.00 | 86 | 1019.2 |
| 20260831225826 | 77 | 221 | 0.0 | 0.0 | 0.00 | 0.00 | 0.00 | 86 | 1019.4 |
| 20260831224821 | 77 | 221 | 0.0 | 0.0 | 0.00 | 0.00 | 0.00 | 85 | 1019.5 |
| 20260831223827 | 78 | 221 | 0.0 | 0.0 | 0.00 | 0.00 | 0.00 | 85 | 1019.6 |
| 20260831222821 | 78 | 221 | 0.0 | 0.0 | 0.00 | 0.00 | 0.00 | 84 | 1019.7 |
| 20260831221837 | 79 | 221 | 0.0 | 0.0 | 0.00 | 0.00 | 0.00 | 84 | 1019.9 |
| 20260831220829 | 79 | 221 | 0.0 | 0.0 | 0.00 | 0.00 | 0.00 | 84 | 1019.8 |
| 20260831215816 | 79 | 221 | 0.0 | 0.0 | 0.00 | 0.00 | 0.00 | 84 | 1019.8 |
| 20260831214831 | 80 | 221 | 0.0 | 0.0 | 0.00 | 0.00 | 0.00 | 83 | 1019.7 |
| 20260831213828 | 80 | 221 | 0.0 | 0.0 | 0.00 | 0.00 | 0.00 | 83 | 1019.8 |
| 20260831212816 | 80 | 221 | 0.0 | 0.0 | 0.00 | 0.00 | 0.00 | 81 | 1019.8 |
| 20260831211814 | 81 | 221 | 0.0 | 0.0 | 0.00 | 0.00 | 0.00 | 82 | 1019.9 |
| 20260831210848 | 81 | 221 | 0.0 | 0.0 | 0.00 | 0.00 | 0.00 | 82 | 1020.1 |
| 20260831205816 | 81 | 221 | 0.0 | 0.0 | 0.00 | 0.00 | 0.00 | 82 | 1020.1 |
| 20260831204831 | 81 | 221 | 0.0 | 0.0 | 0.00 | 0.00 | 0.00 | 81 | 1020.1 |
| 20260831203825 | 81 | 221 | 0.0 | 0.0 | 0.00 | 0.00 | 0.00 | 80 | 1020.0 |
| 20260831202841 | 82 | 221 | 0.0 | 0.0 | 0.00 | 0.00 | 0.00 | 78 | 1019.9 |
| 20260831201815 | 82 | 221 | 0.0 | 0.0 | 0.00 | 0.00 | 0.00 | 77 | 1019.9 |
| 20260831200830 | 82 | 223 | 0.0 | 0.0 | 0.00 | 0.00 | 0.00 | 78 | 1020.1 |
| 20260831195817 | 82 | 223 | 0.0 | 0.0 | 0.00 | 0.00 | 0.00 | 77 | 1020.3 |
| 20260831194831 | 82 | 254 | 0.0 | 0.0 | 0.00 | 0.00 | 0.00 | 77 | 1020.3 |
| 20260831193829 | 82 | 254 | 0.0 | 0.0 | 0.00 | 0.00 | 0.00 | 77 | 1020.4 |
| 20260831192818 | 82 | 254 | 0.0 | 0.0 | 0.00 | 0.00 | 0.00 | 78 | 1020.4 |
| 20260831191842 | 82 | 254 | 0.0 | 0.0 | 0.00 | 0.00 | 0.00 | 76 | 1020.5 |
| 20260831190827 | 82 | 236 | 0.0 | 0.0 | 0.00 | 0.00 | 0.00 | 79 | 1020.5 |
| 20260831185814 | 81 | 236 | 0.0 | 0.0 | 0.00 | 0.00 | 0.00 | 77 | 1020.7 |
| 20260831184831 | 81 | 236 | 0.0 | 0.0 | 0.00 | 0.00 | 0.00 | 77 | 1020.7 |
| 20260831183850 | 81 | 236 | 0.0 | 0.0 | 0.00 | 0.00 | 0.00 | 79 | 1020.8 |
| 20260831182823 | 82 | 236 | 0.0 | 0.0 | 0.00 | 0.00 | 0.00 | 78 | 1020.7 |
| 20260831181820 | 82 | 236 | 0.0 | 0.0 | 0.00 | 0.00 | 0.00 | 77 | 1020.8 |
| 20260831180832 | 81 | 227 | 0.0 | 0.0 | 0.00 | 0.00 | 0.00 | 80 | 1020.7 |
| 20260831175823 | 80 | 190 | 0.0 | 0.0 | 0.00 | 0.11 | 0.00 | 80 | 1020.9 |
| 20260831174840 | 80 | 190 | 0.0 | 0.0 | 0.00 | 0.11 | 0.00 | 79 | 1020.9 |
| 20260831173836 | 80 | 190 | 0.0 | 0.0 | 0.00 | 0.11 | 0.00 | 78 | 1020.9 |
| 20260831172833 | 80 | 166 | 0.0 | 0.0 | 0.00 | 0.11 | 0.00 | 80 | 1021.0 |
| 20260831171816 | 79 | 165 | 0.0 | 0.0 | 0.00 | 0.11 | 0.00 | 80 | 1021.1 |
| 20260831170830 | 79 | 165 | 0.0 | 0.0 | 0.00 | 0.11 | 0.00 | 79 | 1021.1 |
| 20260831165848 | 78 | 155 | 0.0 | 0.0 | 0.00 | 0.11 | 0.00 | 80 | 1021.1 |
| 20260831164814 | 78 | 159 | 0.0 | 0.0 | 0.00 | 0.11 | 0.00 | 79 | 1021.1 |
| 20260831163829 | 78 | 159 | 0.0 | 0.0 | 0.00 | 0.11 | 0.00 | 81 | 1021.3 |
| 20260831162820 | 77 | 159 | 0.0 | 0.0 | 0.00 | 0.11 | 0.00 | 82 | 1021.4 |
| 20260831161816 | 77 | 54 | 0.0 | 2.0 | 0.00 | 0.11 | 0.00 | 82 | 1021.6 |
| 20260831160831 | 76 | 52 | 1.0 | 5.0 | 0.00 | 0.11 | 0.00 | 81 | 1021.6 |
| 20260831155819 | 76 | 176 | 0.0 | 5.0 | 0.00 | 0.11 | 0.00 | 82 | 1021.4 |
| 20260831154835 | 76 | 71 | 0.0 | 0.0 | 0.00 | 0.11 | 0.00 | 83 | 1021.4 |
| 20260831153830 | 76 | 71 | 0.0 | 0.0 | 0.00 | 0.11 | 0.00 | 82 | 1021.5 |
| 20260831152827 | 76 | 71 | 0.0 | 0.0 | 0.00 | 0.11 | 0.00 | 84 | 1021.5 |
| 20260831151840 | 75 | 38 | 0.0 | 3.0 | 0.00 | 0.11 | 0.00 | 84 | 1021.6 |
| 20260831150852 | 75 | 13 | 0.0 | 4.0 | 0.00 | 0.11 | 0.00 | 85 | 1021.5 |
| 20260831145818 | 74 | 130 | 0.0 | 0.0 | 0.00 | 0.11 | 0.00 | 88 | 1021.6 |
| 20260831144831 | 73 | 150 | 0.0 | 2.0 | 0.00 | 0.11 | 0.00 | 88 | 1021.6 |
| 20260831143846 | 73 | 150 | 1.0 | 6.0 | 0.00 | 0.11 | 0.00 | 88 | 1021.7 |
| 20260831142821 | 72 | 313 | 2.0 | 5.0 | 0.00 | 0.11 | 0.00 | 89 | 1021.8 |
| 20260831141815 | 72 | 36 | 1.0 | 5.0 | 0.00 | 0.11 | 0.00 | 90 | 1021.8 |
| 20260831140828 | 72 | 360 | 1.0 | 6.0 | 0.00 | 0.11 | 0.00 | 91 | 1021.8 |
| 20260831135817 | 71 | 16 | 1.0 | 4.0 | 0.00 | 0.11 | 0.00 | 91 | 1021.7 |
| 20260831134832 | 71 | 314 | 0.0 | 4.0 | 0.00 | 0.11 | 0.00 | 91 | 1021.6 |
| 20260831133823 | 71 | 74 | 0.0 | 0.0 | 0.00 | 0.11 | 0.00 | 91 | 1021.5 |
| 20260831132820 | 71 | 74 | 0.0 | 0.0 | 0.00 | 0.11 | 0.00 | 91 | 1021.5 |
| 20260831131837 | 71 | 74 | 0.0 | 0.0 | 0.00 | 0.11 | 0.00 | 91 | 1021.5 |
| 20260831130825 | 71 | 74 | 0.0 | 0.0 | 0.00 | 0.11 | 0.00 | 91 | 1021.5 |
| 20260831125841 | 71 | 74 | 0.0 | 0.0 | 0.00 | 0.11 | 0.00 | 91 | 1021.6 |
| 20260831124828 | 71 | 74 | 0.0 | 0.0 | 0.00 | 0.11 | 0.00 | 92 | 1021.7 |
| 20260831123820 | 71 | 76 | 1.0 | 4.0 | 0.00 | 0.11 | 0.00 | 92 | 1021.6 |
| 20260831122831 | 71 | 5 | 0.0 | 0.0 | 0.00 | 0.11 | 0.00 | 92 | 1021.6 |
| 20260831121844 | 70 | 55 | 0.0 | 0.0 | 0.00 | 0.11 | 0.00 | 93 | 1021.6 |
| 20260831120815 | 70 | 22 | 0.0 | 0.0 | 0.00 | 0.11 | 0.00 | 93 | 1021.3 |
| 20260831115823 | 70 | 22 | 0.0 | 0.0 | 0.00 | 0.11 | 0.00 | 93 | 1021.2 |
| 20260831114817 | 70 | 22 | 0.0 | 0.0 | 0.00 | 0.11 | 0.00 | 94 | 1021.2 |
| 20260831113830 | 70 | 59 | 0.0 | 0.0 | 0.00 | 0.11 | 0.00 | 93 | 1021.1 |
| 20260831112842 | 70 | 28 | 0.0 | 0.0 | 0.00 | 0.11 | 0.00 | 93 | 1020.9 |
| 20260831111813 | 70 | 38 | 0.0 | 0.0 | 0.00 | 0.11 | 0.00 | 93 | 1020.8 |
| 20260831110830 | 70 | 38 | 0.0 | 0.0 | 0.00 | 0.11 | 0.00 | 93 | 1020.8 |
| 20260831105816 | 70 | 26 | 0.0 | 0.0 | 0.00 | 0.11 | 0.00 | 93 | 1020.7 |
| 20260831104827 | 69 | 26 | 0.0 | 0.0 | 0.00 | 0.11 | 0.00 | 93 | 1020.5 |
| 20260831103835 | 69 | 26 | 0.0 | 0.0 | 0.00 | 0.11 | 0.00 | 93 | 1020.6 |
| 20260831102817 | 69 | 26 | 0.0 | 0.0 | 0.00 | 0.11 | 0.00 | 93 | 1020.5 |
| 20260831101901 | 69 | 26 | 0.0 | 0.0 | 0.00 | 0.11 | 0.00 | 93 | 1020.5 |
| 20260831100833 | 70 | 26 | 0.0 | 0.0 | 0.00 | 0.11 | 0.00 | 93 | 1020.4 |
| 20260831095839 | 70 | 26 | 0.0 | 0.0 | 0.00 | 0.11 | 0.00 | 93 | 1020.4 |
| 20260831094831 | 70 | 26 | 0.0 | 0.0 | 0.00 | 0.11 | 0.00 | 93 | 1020.3 |
| 20260831093816 | 70 | 26 | 0.0 | 0.0 | 0.00 | 0.11 | 0.00 | 93 | 1020.3 |
| 20260831092826 | 70 | 26 | 0.0 | 0.0 | 0.00 | 0.11 | 0.00 | 93 | 1020.2 |
| 20260831091817 | 70 | 26 | 0.0 | 0.0 | 0.00 | 0.11 | 0.00 | 92 | 1020.2 |
| 20260831090828 | 70 | 26 | 0.0 | 0.0 | 0.00 | 0.11 | 0.00 | 92 | 1020.2 |
| 20260831085814 | 70 | 26 | 0.0 | 0.0 | 0.00 | 0.11 | 0.00 | 92 | 1020.1 |
| 20260831084826 | 70 | 26 | 0.0 | 0.0 | 0.00 | 0.11 | 0.00 | 92 | 1019.8 |
| 20260831083818 | 70 | 26 | 0.0 | 0.0 | 0.00 | 0.11 | 0.00 | 93 | 1019.8 |
| 20260831082831 | 70 | 26 | 0.0 | 0.0 | 0.00 | 0.11 | 0.00 | 93 | 1019.8 |
| 20260831081823 | 71 | 12 | 0.0 | 0.0 | 0.00 | 0.11 | 0.00 | 93 | 1019.8 |
| 20260831080835 | 71 | 12 | 0.0 | 0.0 | 0.00 | 0.11 | 0.00 | 93 | 1019.7 |
| 20260831075821 | 71 | 13 | 0.0 | 0.0 | 0.00 | 0.11 | 0.00 | 93 | 1019.6 |
| 20260831074830 | 71 | 12 | 0.0 | 0.0 | 0.00 | 0.11 | 0.00 | 93 | 1019.6 |
| 20260831073843 | 71 | 360 | 0.0 | 0.0 | 0.00 | 0.11 | 0.00 | 93 | 1019.6 |
| 20260831072815 | 71 | 360 | 0.0 | 0.0 | 0.00 | 0.11 | 0.00 | 93 | 1019.8 |
| 20260831071827 | 71 | 360 | 0.0 | 0.0 | 0.00 | 0.11 | 0.00 | 93 | 1019.8 |
| 20260831070838 | 71 | 360 | 0.0 | 0.0 | 0.00 | 0.11 | 0.00 | 93 | 1019.9 |
| 20260831065819 | 71 | 360 | 0.0 | 0.0 | 0.00 | 0.11 | 0.00 | 93 | 1019.9 |
| 20260831064828 | 71 | 360 | 0.0 | 0.0 | 0.00 | 0.11 | 0.00 | 93 | 1019.8 |
| 20260831063840 | 71 | 360 | 0.0 | 0.0 | 0.00 | 0.11 | 0.00 | 92 | 1019.9 |
| 20260831062824 | 72 | 360 | 0.0 | 0.0 | 0.00 | 0.11 | 0.00 | 92 | 1019.9 |
| 20260831061815 | 72 | 360 | 0.0 | 0.0 | 0.00 | 0.11 | 0.00 | 92 | 1020.0 |
| 20260831060826 | 72 | 360 | 0.0 | 0.0 | 0.00 | 0.11 | 0.00 | 92 | 1020.1 |
| 20260831055832 | 72 | 360 | 0.0 | 0.0 | 0.00 | 0.11 | 0.00 | 92 | 1020.2 |
| 20260831054824 | 72 | 360 | 0.0 | 3.0 | 0.00 | 0.11 | 0.00 | 92 | 1020.3 |
| 20260831053815 | 73 | 355 | 0.0 | 3.0 | 0.00 | 0.11 | 0.00 | 92 | 1020.4 |
| 20260831052830 | 73 | 355 | 1.0 | 4.0 | 0.00 | 0.11 | 0.00 | 92 | 1020.5 |
| 20260831051841 | 73 | 17 | 1.0 | 7.0 | 0.00 | 0.11 | 0.00 | 92 | 1020.3 |
| 20260831050831 | 73 | 51 | 1.0 | 8.0 | 0.00 | 0.11 | 0.00 | 92 | 1020.3 |
| 20260831045817 | 73 | 94 | 0.0 | 0.0 | 0.00 | 0.11 | 0.00 | 92 | 1020.3 |
| 20260831044850 | 73 | 188 | 0.0 | 0.0 | 0.00 | 0.11 | 0.00 | 92 | 1020.2 |
| 20260831043820 | 73 | 188 | 0.0 | 0.0 | 0.00 | 0.11 | 0.00 | 91 | 1020.2 |
| 20260831042831 | 73 | 188 | 0.0 | 0.0 | 0.00 | 0.11 | 0.00 | 92 | 1020.1 |
| 20260831041823 | 73 | 188 | 0.0 | 0.0 | 0.00 | 0.11 | 0.00 | 91 | 1020.2 |
| 20260831040815 | 73 | 188 | 0.0 | 0.0 | 0.00 | 0.11 | 0.00 | 92 | 1020.2 |
| 20260831035820 | 73 | 188 | 0.0 | 0.0 | 0.00 | 0.11 | 0.11 | 92 | 1020.3 |
| 20260831034819 | 73 | 188 | 0.0 | 0.0 | 0.00 | 0.11 | 0.11 | 92 | 1020.3 |
| 20260831033838 | 74 | 188 | 0.0 | 0.0 | 0.00 | 0.11 | 0.11 | 92 | 1020.5 |
| 20260831032825 | 74 | 207 | 0.0 | 0.0 | 0.00 | 0.11 | 0.11 | 91 | 1020.6 |
| 20260831031819 | 74 | 207 | 0.0 | 0.0 | 0.00 | 0.11 | 0.11 | 91 | 1020.6 |
| 20260831030819 | 74 | 207 | 0.0 | 0.0 | 0.00 | 0.11 | 0.11 | 91 | 1020.6 |
| 20260831025832 | 74 | 207 | 0.0 | 0.0 | 0.00 | 0.11 | 0.11 | 91 | 1020.7 |
| 20260831024815 | 74 | 207 | 0.0 | 0.0 | 0.00 | 0.11 | 0.11 | 91 | 1020.8 |
| 20260831023832 | 74 | 207 | 0.0 | 0.0 | 0.00 | 0.11 | 0.11 | 91 | 1020.8 |
| 20260831022823 | 74 | 207 | 0.0 | 0.0 | 0.00 | 0.11 | 0.11 | 90 | 1020.7 |
| 20260831021822 | 74 | 207 | 0.0 | 0.0 | 0.00 | 0.11 | 0.11 | 90 | 1020.7 |
| 20260831020824 | 75 | 207 | 0.0 | 0.0 | 0.00 | 0.11 | 0.11 | 90 | 1020.5 |
| 20260831015831 | 75 | 207 | 0.0 | 0.0 | 0.00 | 0.11 | 0.11 | 90 | 1020.4 |
| 20260831014826 | 75 | 207 | 0.0 | 0.0 | 0.00 | 0.11 | 0.11 | 89 | 1020.5 |
| 20260831013823 | 75 | 207 | 0.0 | 0.0 | 0.00 | 0.11 | 0.11 | 89 | 1020.5 |
| 20260831012815 | 75 | 207 | 0.0 | 0.0 | 0.00 | 0.11 | 0.11 | 89 | 1020.6 |
| 20260831011832 | 75 | 207 | 0.0 | 0.0 | 0.00 | 0.11 | 0.11 | 89 | 1020.6 |
| 20260831010832 | 75 | 207 | 0.0 | 0.0 | 0.00 | 0.11 | 0.11 | 88 | 1020.6 |
| 20260831005821 | 76 | 207 | 0.0 | 0.0 | 0.00 | 0.11 | 0.11 | 88 | 1020.5 |
| 20260831004819 | 76 | 207 | 0.0 | 0.0 | 0.00 | 0.11 | 0.11 | 88 | 1020.3 |
| 20260831003816 | 76 | 207 | 0.0 | 0.0 | 0.00 | 0.11 | 0.11 | 87 | 1020.2 |
| 20260831002814 | 76 | 207 | 0.0 | 0.0 | 0.00 | 0.11 | 0.11 | 87 | 1020.0 |
| 20260831001833 | 76 | 207 | 0.0 | 0.0 | 0.00 | 0.11 | 0.11 | 87 | 1019.9 |
| 20260831000824 | 77 | 207 | 0.0 | 0.0 | 0.00 | 0.11 | 0.11 | 86 | 1019.7 |
| 20260830235816 | 77 | 207 | 0.0 | 0.0 | 0.00 | 0.11 | 0.11 | 85 | 1019.6 |
| 20260830234814 | 78 | 207 | 0.0 | 1.0 | 0.00 | 0.11 | 0.11 | 85 | 1019.5 |